Date String (YYYY-MM-DD hh:mm:ss) UTC,Instrument flags,absolute air pressure of the measurement (hPa),sample flow rate (lpm),inlet stack bypass flow (lpm),air temperature of the measurement (°C),ambient temperature measured by the external sensor (°C),aerosol sample conditioner tube jacket temperature (°C),OPC LED temperature (°C),internal box temperature (°C),relative humidity of the measurement (%),span deviation,mass concentration of particles derived from Lorenz-Mie calculation of OPC scattering (μg/m³),mass concentration of particles derived from Lorenz-Mie calculation of OPC scattering (μg/m³),mass concentration of particles derived from Lorenz-Mie calculation of OPC scattering (μg/m³)
DateTimeUTC,F1_M11,P_M11,Q1_M11,Q2_M11,T1_M11,T2_M11,T3_M11,T4_M11,T5_M11,U1_M11,ZSPAN_M11,X0_M11,X2_M11,X1_M11
2024-05-28 16:00:00,SystemResetWarning,0835.3,4.99,000.00,030.6,029.9,000.0,038.9,032.2,017.2,0000.0,0013.67,0003.55,0002.70
2024-05-28 16:01:00,SystemResetWarning,0835.3,4.99,000.00,030.6,029.9,000.0,038.9,032.3,017.3,0000.0,0014.30,0003.57,0002.71
2024-05-28 16:02:00,SystemResetWarning,0835.3,5.00,000.00,030.6,029.9,000.0,038.9,032.3,017.2,0000.0,0015.10,0003.60,0002.71
2024-05-28 16:03:00,SystemResetWarning,0835.2,5.01,000.00,030.7,029.9,000.0,038.9,032.2,017.2,0000.0,0015.47,0003.62,0002.70
2024-05-28 16:04:00,SystemResetWarning,0835.2,5.01,000.00,030.7,029.9,000.0,038.9,032.3,017.9,0000.0,0016.20,0003.62,0002.70
2024-05-28 16:05:00,SystemResetWarning,0835.2,5.01,000.00,030.7,029.9,000.0,039.0,032.3,017.7,0000.0,0016.90,0003.62,0002.71
2024-05-28 16:06:00,SystemResetWarning,0835.2,4.99,000.00,030.7,030.0,000.0,039.0,032.3,017.4,0000.0,0016.05,0003.61,0002.73
2024-05-28 16:07:00,SystemResetWarning,0835.2,4.99,000.00,030.7,030.0,000.0,039.0,032.3,017.7,0000.0,0015.56,0003.63,0002.74
2024-05-28 16:08:00,SystemResetWarning,0835.2,5.00,000.00,030.7,030.0,000.0,039.0,032.3,017.6,0000.0,0014.10,0003.65,0002.75
2024-05-28 16:09:00,SystemResetWarning,0835.2,5.00,000.00,030.7,030.0,000.0,039.0,032.4,017.3,0000.0,0014.16,0003.67,0002.77
2024-05-28 16:10:00,SystemResetWarning,0835.2,5.01,000.00,030.7,030.0,000.0,039.0,032.4,017.4,0000.0,0014.80,0003.70,0002.80
2024-05-28 16:11:00,SystemResetWarning,0835.2,5.01,000.00,030.7,030.0,000.0,039.0,032.4,017.2,0000.0,0014.61,0003.76,0002.81
2024-05-28 16:12:00,SystemResetWarning,0835.2,5.00,000.00,030.7,030.0,000.0,039.0,032.4,017.2,0000.0,0014.81,0003.79,0002.83
2024-05-28 16:13:00,SystemResetWarning,0835.2,5.00,000.00,030.8,030.0,000.0,039.0,032.4,017.7,0000.0,0013.81,0003.78,0002.85
2024-05-28 16:14:00,SystemResetWarning,0835.2,5.00,000.00,030.8,030.0,000.0,039.0,032.4,018.0,0000.0,0014.14,0003.76,0002.85
2024-05-28 16:15:00,SystemResetWarning,0835.2,5.00,000.00,030.8,030.0,000.0,039.1,032.4,017.5,0000.0,0013.45,0003.76,0002.86
2024-05-28 16:16:00,SystemResetWarning,0835.1,4.99,000.00,030.8,030.0,000.0,039.1,032.4,017.0,0000.0,0012.09,0003.76,0002.85
2024-05-28 16:17:00,SystemResetWarning,0835.1,4.99,000.00,030.8,030.1,000.0,039.1,032.4,017.3,0000.0,0012.03,0003.77,0002.83
2024-05-28 16:18:00,SystemResetWarning,0835.2,5.00,000.00,030.8,030.1,000.0,039.1,032.4,017.4,0000.0,0012.45,0003.79,0002.82
2024-05-28 16:19:00,SystemResetWarning,0835.1,5.01,000.00,030.8,030.1,000.0,039.1,032.4,016.8,0000.0,0012.27,0003.78,0002.82
2024-05-28 16:20:00,SystemResetWarning,0835.1,5.01,000.00,030.8,030.1,000.0,039.1,032.5,016.9,0000.0,0013.04,0003.75,0002.84
2024-05-28 16:21:00,SystemResetWarning,0835.1,5.00,000.00,030.8,030.1,000.0,039.1,032.5,017.1,0000.0,0012.84,0003.72,0002.82
2024-05-28 16:22:00,SystemResetWarning,0835.1,4.99,000.00,030.9,030.1,000.0,039.1,032.5,017.2,0000.0,0013.58,0003.67,0002.81
2024-05-28 16:23:00,SystemResetWarning,0835.2,4.99,000.00,030.9,030.1,000.0,039.1,032.5,017.2,0000.0,0013.69,0003.65,0002.79
2024-05-28 16:24:00,SystemResetWarning,0835.1,5.01,000.00,030.9,030.1,000.0,039.2,032.5,017.2,0000.0,0014.50,0003.66,0002.80
2024-05-28 16:25:00,SystemResetWarning,0835.1,5.01,000.00,030.9,030.2,000.0,039.2,032.5,017.2,0000.0,0014.88,0003.65,0002.82
2024-05-28 16:26:00,SystemResetWarning,0835.2,5.00,000.00,030.9,030.2,000.0,039.2,032.5,017.1,0000.0,0014.90,0003.65,0002.82
2024-05-28 16:27:00,SystemResetWarning,0835.1,5.00,000.00,030.9,030.2,000.0,039.2,032.5,017.1,0000.0,0015.76,0003.65,0002.85
2024-05-28 16:28:00,SystemResetWarning,0835.1,5.00,000.00,030.9,030.2,000.0,039.2,032.5,016.8,0000.0,0015.97,0003.63,0002.86
2024-05-28 16:29:00,SystemResetWarning,0835.1,4.99,000.00,030.9,030.2,000.0,039.2,032.5,016.7,0000.0,0015.98,0003.64,0002.89
2024-05-28 16:30:00,SystemResetWarning,0835.1,4.99,000.00,031.0,030.2,000.0,039.2,032.5,017.1,0000.0,0015.99,0003.68,0002.89
2024-05-28 16:31:00,SystemResetWarning,0835.1,5.00,000.00,031.0,030.2,000.0,039.2,032.6,017.3,0000.0,0015.18,0003.72,0002.89
2024-05-28 16:32:00,SystemResetWarning,0835.1,5.00,000.00,031.0,030.3,000.0,039.2,032.6,017.3,0000.0,0015.52,0003.74,0002.89
2024-05-28 16:33:00,SystemResetWarning,0835.1,5.01,000.00,031.0,030.3,000.0,039.3,032.6,016.8,0000.0,0016.29,0003.73,0002.88
2024-05-28 16:34:00,SystemResetWarning,0835.1,5.00,000.00,031.0,030.3,000.0,039.3,032.6,016.9,0000.0,0015.73,0003.71,0002.87
2024-05-28 16:35:00,SystemResetWarning,0835.1,5.00,000.00,031.0,030.3,000.0,039.3,032.6,017.0,0000.0,0014.57,0003.68,0002.86
2024-05-28 16:36:00,SystemResetWarning,0835.2,5.00,000.00,031.0,030.3,000.0,039.3,032.6,017.8,0000.0,0013.53,0003.67,0002.85
2024-05-28 16:37:00,SystemResetWarning,0835.1,5.00,000.00,031.1,030.4,000.0,039.3,032.7,017.5,0000.0,0013.59,0003.70,0002.84
2024-05-28 16:38:00,SystemResetWarning,0835.2,4.99,000.00,031.1,030.4,000.0,039.3,032.7,017.4,0000.0,0012.96,0003.70,0002.84
2024-05-28 16:39:00,SystemResetWarning,0835.1,5.00,000.00,031.1,030.4,000.0,039.3,032.7,017.3,0000.0,0012.57,0003.71,0002.85
2024-05-28 16:40:00,SystemResetWarning,0835.2,4.99,000.00,031.1,030.4,000.0,039.3,032.7,017.4,0000.0,0012.74,0003.71,0002.84
2024-05-28 16:41:00,SystemResetWarning,0835.1,5.00,000.00,031.1,030.4,000.0,039.3,032.7,017.2,0000.0,0013.55,0003.69,0002.84
2024-05-28 16:42:00,SystemResetWarning,0835.2,5.00,000.00,031.1,030.4,000.0,039.4,032.7,017.2,0000.0,0013.45,0003.66,0002.82
2024-05-28 16:43:00,SystemResetWarning,0835.2,4.98,000.00,031.1,030.0,000.0,039.4,032.5,017.3,0000.0,0013.66,0003.65,0002.82
2024-05-28 16:44:00,SystemResetWarning,0835.0,5.00,000.00,030.8,028.0,000.0,039.5,031.5,018.2,0000.0,0012.22,0003.66,0002.83
2024-05-28 16:45:00,SystemResetWarning,0835.0,5.02,000.00,030.5,027.4,000.0,039.4,031.2,019.0,0000.0,0012.48,0003.64,0002.83
2024-05-28 16:46:00,SystemResetWarning,0835.0,5.00,000.00,030.3,027.7,000.0,039.3,031.3,018.2,0000.0,0013.39,0003.67,0002.82
2024-05-28 16:47:00,SystemResetWarning,0835.1,4.99,000.00,030.3,028.1,000.0,039.1,031.4,018.2,0000.0,0013.90,0003.66,0002.82
2024-05-28 16:48:00,SystemResetWarning,0835.1,5.00,000.00,030.3,028.4,000.0,039.1,031.6,018.1,0000.0,0014.23,0003.65,0002.82
2024-05-28 16:49:00,SystemResetWarning,0835.1,5.00,000.00,030.3,028.6,000.0,039.0,031.7,018.1,0000.0,0014.77,0003.63,0002.80
2024-05-28 16:50:00,SystemResetWarning,0835.0,5.00,000.00,030.3,028.9,000.0,038.9,031.8,018.2,0000.0,0014.71,0003.61,0002.79
2024-05-28 16:51:00,SystemResetWarning,0835.0,5.00,000.00,030.3,029.0,000.0,038.9,031.9,018.1,0000.0,0014.26,0003.59,0002.78
2024-05-28 16:52:00,SystemResetWarning,0835.0,5.00,000.00,030.4,029.2,000.0,038.9,031.9,018.4,0000.0,0013.20,0003.59,0002.77
2024-05-28 16:53:00,SystemResetWarning,0835.0,5.00,000.00,030.4,029.3,000.0,038.9,032.0,018.6,0000.0,0013.57,0003.59,0002.76
2024-05-28 16:54:00,SystemResetWarning,0835.0,5.00,000.00,030.4,029.4,000.0,038.8,032.0,018.4,0000.0,0013.24,0003.63,0002.76
2024-05-28 16:55:00,SystemResetWarning,0835.0,5.00,000.00,030.4,029.5,000.0,038.8,032.0,018.2,0000.0,0012.84,0003.64,0002.75
2024-05-28 16:56:00,SystemResetWarning,0835.0,5.00,000.00,030.5,029.6,000.0,038.8,032.1,018.2,0000.0,0013.37,0003.65,0002.77
2024-05-28 16:57:00,SystemResetWarning,0835.0,4.99,000.00,030.5,029.7,000.0,038.8,032.1,018.5,0000.0,0012.79,0003.69,0002.77
2024-05-28 16:58:00,SystemResetWarning,0834.9,4.99,000.00,030.5,029.8,000.0,038.8,032.1,018.3,0000.0,0012.20,0003.71,0002.77
2024-05-28 16:59:00,SystemResetWarning,0834.9,5.00,000.00,030.5,029.8,000.0,038.8,032.2,018.5,0000.0,0012.30,0003.71,0002.77
